Nashville, TN

6:12 AM CST on November 14, 2019 (GMT -0600)
Nashville International

Weather History for KBNA - May, 2019

Change the Weather History Date:

Friday, May 24, 2019

  Actual Average Record
Temperature  
Mean Temperature 80 °F 70 °F  
Max Temperature 93 °F 80 °F 93 °F (1996)
Min Temperature 67 °F 59 °F 44 °F (1931)
Degree Days  
Heating Degree Days 0    
Month to date heating degree days 27  
Since 1 July heating degree days 3220  
Cooling Degree Days 15    
Month to date cooling degree days 165  
Year to date cooling degree days 224  
Growing Degree Days 30 (Base 50)    
Moisture  
Dew Point 65 °F    
Average Humidity 61    
Maximum Humidity 82    
Minimum Humidity 38    
Precipitation  
Precipitation 0.01 in 0.16 in 3.28 in (2000)
Month to date precipitation 1.58 4.36  
Year to date precipitation 29.46 20.16  
Sea Level Pressure  
Sea Level Pressure 30.11 in    
Wind  
Wind Speed 3 mph ()    
Max Wind Speed 14 mph    
Max Gust Speed 20 mph    
Visibility 10.0 miles    
Events      
T = Trace of Precipitation, MM = Missing Value Source: Averaged Metar Reports

Daily Weather History Graph

Daily Weather History Graph

Search for Another Location

Airport or City:

Astronomy

May. 24, 2019 Rise Set
Actual Time 5:34 AM CDT 7:52 PM CDT
Civil Twilight 5:05 AM CDT 8:22 PM CDT
Nautical Twilight 4:29 AM CDT 8:58 PM CDT
Astronomical Twilight 3:50 AM CDT 9:37 PM CDT
Moon 12:17 AM CDT (5/24) 10:34 AM CDT (5/24)
Length of Visible Light 15h 16m
Length of Day
14h 18m
Waning Gibbous, 68% of the Moon is Illuminated
May 24
Waning Gibbous
May 26
Last Quarter
Jun 3
New
Jun 10
First Quarter
Jun 17
Full

Hourly Weather History & Observations

Time (CDT) Temp. Heat Index Dew Point Humidity Pressure Visibility Wind Dir Wind Speed Gust Speed Precip Events Conditions
12:53 AM 71.1 °F - 63.0 °F 75% 30.11 in 10.0 mi South 4.6 mph - N/A   Clear
2:53 AM 69.1 °F - 63.0 °F 81% 30.10 in 10.0 mi Calm Calm - N/A   Clear
3:53 AM 69.1 °F - 63.0 °F 81% 30.10 in 10.0 mi Calm Calm - N/A   Clear
4:53 AM 68.0 °F - 62.1 °F 81% 30.12 in 10.0 mi Calm Calm - N/A   Clear
5:53 AM 68.0 °F - 62.1 °F 81% 30.13 in 10.0 mi Calm Calm - N/A   Partly Cloudy
6:53 AM 71.1 °F - 64.0 °F 78% 30.15 in 10.0 mi Calm Calm - N/A   Clear
7:53 AM 75.9 °F - 64.0 °F 67% 30.17 in 10.0 mi Calm Calm - N/A   Partly Cloudy
8:53 AM 81.0 °F 82.7 °F 64.9 °F 58% 30.18 in 10.0 mi Calm Calm - N/A   Scattered Clouds
9:53 AM 87.1 °F 89.9 °F 66.9 °F 51% 30.17 in 10.0 mi West 5.8 mph - N/A   Partly Cloudy
10:53 AM 89.1 °F 91.3 °F 66.0 °F 46% 30.16 in 10.0 mi WSW 4.6 mph - N/A   Partly Cloudy
11:53 AM 90.0 °F 91.7 °F 64.9 °F 43% 30.16 in 10.0 mi WSW 6.9 mph - N/A   Mostly Cloudy
12:53 PM 91.0 °F 93.0 °F 64.9 °F 42% 30.14 in 10.0 mi WSW 6.9 mph 19.6 mph N/A   Scattered Clouds
1:53 PM 89.1 °F 90.0 °F 63.0 °F 42% 30.13 in 10.0 mi West 6.9 mph - N/A   Scattered Clouds
2:53 PM 91.9 °F 92.9 °F 63.0 °F 38% 30.12 in 10.0 mi WSW 9.2 mph - N/A   Mostly Cloudy
3:53 PM 91.9 °F 93.3 °F 64.0 °F 39% 30.09 in 10.0 mi Variable 6.9 mph - N/A   Mostly Cloudy
4:53 PM 91.9 °F 92.9 °F 63.0 °F 38% 30.09 in 10.0 mi WSW 4.6 mph - N/A   Mostly Cloudy
5:53 PM 91.0 °F 91.9 °F 63.0 °F 39% 30.07 in 10.0 mi Calm Calm - N/A   Mostly Cloudy
6:53 PM 89.1 °F 91.3 °F 66.0 °F 46% 30.06 in 10.0 mi West 3.5 mph - N/A   Mostly Cloudy
7:53 PM 82.0 °F 85.5 °F 69.1 °F 65% 30.05 in 10.0 mi South 3.5 mph - 0.01 in   Mostly Cloudy
8:53 PM 80.1 °F 83.6 °F 71.1 °F 74% 30.05 in 10.0 mi SW 5.8 mph - N/A   Mostly Cloudy
9:53 PM 79.0 °F - 69.1 °F 72% 30.04 in 10.0 mi South 3.5 mph - N/A   Mostly Cloudy
10:53 PM 75.9 °F - 70.0 °F 82% 30.05 in 10.0 mi South 5.8 mph - N/A   Partly Cloudy
11:53 PM 75.9 °F - 70.0 °F 82% 30.06 in 10.0 mi Calm Calm - N/A   Scattered Clouds